LiveATC.Net - Listen to live air traffic control over the Internet!


ICAO: UMGG  IATA: GME   Airport: Gomel Airport
City: Gomel
Country: Belarus   Continent: Europe
UMGG METAR Weather: UMGG 251700Z 13006MPS 9999 SCT050CB BKN070 14/06 Q1023 R10/CLRD// NOSIG
UMGG Flight Activity (FlightAware)

UMGG Control
Feed Status: DOWN
Last heard on: 2019-12-11 18:02:40 (165 days 23 hours 52 minutes ago)
Archive Access: UMGG Control
FacilityFrequency
Minsk Control119.125
Minsk Control120.125
Minsk Control120.575

NOTICE

Unauthorized use prohibited. See LiveATC.net Terms of Service


Airport/ARTCC Code
Frequency Search
(e.g., 124.400, 128.75)
Site-wide search
 


Browse Feeds
Top 50 Feeds
Coverage Map
Bad Weather Areas

LiveATC FAQ
Offer LiveATC feed
Contact LiveATC.net
Press Inquiries

LiveATC on iPhone
LiveATC on Android

Windows Phone
Windows 8/10

LiveATC Mobile
(Mobile browser)

ATC Audio Archives
Interesting Recordings

LiveATC Forums


Home Page
About LiveATC.net
Make a Donation
Terms of Use
Privacy Policy

Canadian Air Freqs

AIRMETs/SIGMETs

FAA Airport Status
Nat'l Airspace Status
Arrival Demand Charts


Server Software By:
Icecast.org
Liquidsoap